[[{"header":{"parameterUnit":"m.s-1","parameterCategory":1,"la1":30.2991,"la2":30.254,"lo1":-89.0895,"lo2":-89.0444,"dy":0.0017,"dx":0.0017,"nx":28,"ny":28,"refTime":"2024-04-30T03:00:00:Z","depth":0,"parameterNumber":2,"parameterNumberName":"U-component_of_WINDS"},"data":[0,0,0,0,0,0,0,0,0,0,0,0,0,0,0,0,0,0,0,0,0,0,0,0,0,0,0,0,0,0,0,0,0,0,0,0,0,0,0,0,0,0,0,0,0,0,0,0,0,0,0,0,0,0,0,0,0,0,-1.7924,-1.7923,0,-1.7875,-1.7875,-1.7874,-1.7798,-1.7797,-1.7796,-1.7794,-1.7746,-1.7746,-1.7746,0,0,0,0,0,0,0,0,0,0,0,0,0,-1.7951,-1.7951,-1.7924,-1.7923,-1.7922,-1.7876,-1.7875,-1.7874,-1.7799,-1.7797,-1.7795,-1.7794,-1.7746,-1.7746,-1.7746,0,0,0,0,0,0,0,0,0,0,0,0,0,-1.7925,-1.7951,-1.7924,-1.7879,-1.7875,-1.7876,-1.7875,-1.7874,-1.7799,-1.7797,-1.7795,-1.7793,-1.7746,-1.7746,-1.7746,-1.7787,0,0,-1.7746,-1.7746,0,0,0,0,0,0,0,0,-1.7926,-1.7924,-1.7886,-1.7882,-1.7877,-1.7841,-1.7867,-1.7845,-1.7799,-1.7828,-1.7794,-1.7792,-1.7779,-1.7776,-1.7772,-1.7785,-1.7783,-1.7746,-1.7746,-1.7746,-1.7746,0,0,0,0,0,0,0,-1.7928,-1.7925,-1.7905,-1.7886,-1.788,-1.7862,-1.7856,-1.7862,-1.7816,-1.7825,-1.7819,-1.7815,-1.7776,-1.7772,-1.777,-1.7782,-1.7746,-1.7746,-1.7746,-1.7746,-1.7825,-1.7827,0,0,0,0,0,0,-1.7936,-1.7927,-1.7906,-1.7903,-1.7897,-1.7863,-1.7856,-1.7855,-1.7815,-1.7807,-1.7816,-1.7811,-1.7773,-1.777,-1.7768,-1.7813,-1.7746,-1.7746,-1.7746,-1.7823,-1.7826,-1.7828,0,0,0,0,0,0,-1.7937,-1.7935,-1.7908,-1.7914,-1.7909,-1.7864,-1.7863,-1.7855,-1.785,-1.7809,-1.78,-1.7821,-1.7771,-1.7768,-1.7782,-1.781,-1.7746,-1.7746,-1.7821,-1.7824,-1.7827,-1.7903,0,0,0,0,0,0,-1.7938,-1.7936,-1.7951,-1.7915,-1.7909,-1.7924,-1.7865,-1.7855,-1.785,-1.7843,-1.781,-1.7803,-1.7769,-1.7783,-1.7783,-1.7809,-1.7746,-1.7818,-1.7822,-1.7826,-1.7898,-1.7909,-1.7918,0,0,0,0,0,-1.794,-1.7975,-1.7952,-1.795,-1.7927,-1.7925,-1.7922,-1.7882,-1.7853,-1.7868,-1.7841,-1.7804,-1.7807,-1.7785,-1.7784,-1.7811,-1.7816,-1.7821,-1.7826,-1.7894,-1.7907,-1.7918,0,0,0,0,0,0,-1.8016,-1.7969,-1.7944,-1.7968,-1.7951,-1.7912,-1.793,-1.7897,-1.7889,-1.7882,-1.7834,-1.7827,-1.7848,-1.7831,-1.7807,-1.7848,-1.7806,-1.7811,-1.7858,-1.787,-1.788,-1.7883,-1.7745,0,0,0,0,0,-1.8036,-1.8038,-1.7997,-1.8023,-1.8016,-1.7975,-1.7972,-1.7943,-1.7924,-1.7916,-1.7891,-1.7874,-1.787,-1.787,-1.7865,-1.7896,-1.7887,-1.7914,-1.7924,-1.7932,-1.7936,-1.7951,-1.7962,-1.7844,-1.7844,-1.7844,0,0,-1.8076,-1.8051,-1.8056,-1.8038,-1.8021,-1.8025,-1.7969,-1.7975,-1.7977,-1.7917,-1.7929,-1.791,-1.7888,-1.7911,-1.7919,-1.7897,-1.7967,-1.7938,-1.7945,-1.7945,-1.7957,-1.7968,-1.7978,-1.7847,-1.7847,-1.7846,0,0,-1.8152,-1.8134,-1.8152,-1.8137,-1.8112,-1.8085,-1.809,-1.8056,-1.804,-1.8052,-1.8006,-1.8009,-1.8005,-1.799,-1.7982,-1.8053,-1.8018,-1.8053,-1.8104,-1.8119,-1.8128,-1.8136,-1.816,-1.8169,-1.8058,-1.8058,-1.8058,0,-1.8206,-1.8209,-1.8166,-1.8175,-1.8168,-1.8114,-1.8133,-1.812,-1.8096,-1.8092,-1.8068,-1.8061,-1.8042,-1.8061,-1.8078,-1.8074,-1.8077,-1.8056,-1.813,-1.8138,-1.8144,-1.8167,-1.8176,-1.8062,-1.8062,-1.8061,-1.8061,0,-1.8276,-1.8279,-1.8297,-1.8274,-1.827,-1.8284,-1.8243,-1.8244,-1.8215,-1.819,-1.8202,-1.8178,-1.8166,-1.8169,-1.8142,-1.8183,-1.817,-1.8139,-1.8095,-1.8161,-1.8181,-1.8189,-1.8068,-1.8067,-1.8066,-1.8064,0,0,-1.8397,-1.8351,-1.8358,-1.8347,-1.8316,-1.8317,-1.8329,-1.8318,-1.8319,-1.8304,-1.8312,-1.831,-1.8281,-1.8272,-1.8243,-1.8256,-1.8312,-1.8222,-1.8221,-1.8239,-1.8356,-1.8379,-1.8389,-1.8289,-1.8291,-1.8292,-1.8357,0,-1.8466,-1.8482,-1.8444,-1.847,-1.8472,-1.8421,-1.8431,-1.8413,-1.839,-1.8389,-1.8364,-1.8363,-1.8324,-1.8319,-1.8329,-1.8303,-1.8335,-1.8298,-1.8296,-1.8296,-1.8302,-1.84,-1.8424,-1.8487,-1.8365,-1.8366,-1.8367,0,-1.8548,-1.8537,-1.8563,-1.853,-1.8529,-1.8539,-1.8525,-1.8525,-1.8504,-1.8486,-1.8477,-1.8442,-1.8451,-1.841,-1.8421,-1.8397,-1.8394,-1.8381,-1.8383,-1.838,-1.8335,-1.8399,-1.8506,-1.8515,-1.8379,-1.8378,-1.8378,0,-1.8633,-1.8624,-1.8638,-1.863,-1.8593,-1.8601,-1.8586,-1.8562,-1.8558,-1.8546,-1.8543,-1.8533,-1.8527,-1.852,-1.8484,-1.8457,-1.8499,-1.8455,-1.8484,-1.8485,-1.8494,-1.8494,-1.8601,-1.8495,-1.8495,-1.8494,-1.8494,0,-1.8712,-1.873,-1.8676,-1.8684,-1.8703,-1.8659,-1.8678,-1.8658,-1.8638,-1.8642,-1.8597,-1.8602,-1.8554,-1.8553,-1.8525,-1.8538,-1.8536,-1.8522,-1.8514,-1.8525,-1.8527,-1.8522,-1.8516,-1.8497,-1.8496,-1.8496,-1.8495,0,-1.881,-1.8774,-1.8786,-1.875,-1.8741,-1.8756,-1.8724,-1.8731,-1.8705,-1.8711,-1.8709,-1.867,-1.8666,-1.863,-1.8619,-1.8599,-1.8623,-1.8608,-1.863,-1.8625,-1.8655,-1.8652,-1.8762,-1.8773,-1.8661,-1.8662,-1.8663,0,-1.8863,-1.8875,-1.8839,-1.8838,-1.8825,-1.8825,-1.882,-1.8778,-1.8774,-1.8751,-1.876,-1.8753,-1.8745,-1.8743,-1.8713,-1.8704,-1.8687,-1.8726,-1.8685,-1.8696,-1.8686,-1.8685,-1.8686,-1.8734,-1.8736,-1.8737,-1.8738,0,-1.896,-1.8941,-1.8936,-1.8924,-1.8919,-1.8908,-1.8895,-1.8897,-1.885,-1.8849,-1.8844,-1.8838,-1.8827,-1.882,-1.8806,-1.879,-1.8756,-1.8751,-1.8757,-1.8768,-1.878,-1.8773,-1.8652,-1.8749,-1.8747,-1.8747,-1.8746,-1.8746,-1.9035,-1.9043,-1.902,-1.9015,-1.9,-1.8988,-1.8992,-1.8967,-1.8963,-1.895,-1.8925,-1.8925,-1.8903,-1.888,-1.8868,-1.8866,-1.8846,-1.8855,-1.8857,-1.886,-1.8865,-1.8781,-1.8864,-1.8864,-1.8863,-1.8863,-1.8863,0,-1.9129,-1.9111,-1.9107,-1.9089,-1.9085,-1.9054,-1.9037,-1.9036,-1.9036,-1.9018,-1.9011,-1.9006,-1.9,-1.8969,-1.896,-1.8964,-1.8949,-1.8963,-1.8962,-1.8958,-1.8885,-1.888,-1.8976,-1.8976,-1.8976,-1.8976,-1.8976,-1.8976,-1.9177,-1.9189,-1.9168,-1.9172,-1.9154,-1.9153,-1.9146,-1.9134,-1.912,-1.9116,-1.9111,-1.9091,-1.9068,-1.9056,-1.9049,-1.904,-1.9038,-1.9057,-1.9043,-1.8975,-1.8964,-1.8953,-1.8948,-1.9058,-1.9058,-1.9117,-1.9117,-1.9118]},{"header":{"parameterUnit":"m.s-1","parameterCategory":1,"la1":30.2991,"la2":30.254,"lo1":-89.0895,"lo2":-89.0444,"dy":0.0017,"dx":0.0017,"nx":28,"ny":28,"refTime":"2024-04-30T03:00:00:Z","depth":0,"parameterNumber":3,"parameterNumberName":"V-component_of_WINDS"},"data":[0,0,0,0,0,0,0,0,0,0,0,0,0,0,0,0,0,0,0,0,0,0,0,0,0,0,0,0,0,0,0,0,0,0,0,0,0,0,0,0,0,0,0,0,0,0,0,0,0,0,0,0,0,0,0,0,0,0,1.3428,1.3428,0,1.3428,1.3428,1.3428,1.3416,1.3416,1.3415,1.3415,1.3413,1.3414,1.3414,0,0,0,0,0,0,0,0,0,0,0,0,0,1.3418,1.3418,1.3428,1.3428,1.3428,1.3428,1.3428,1.3428,1.3416,1.3416,1.3415,1.3415,1.3413,1.3414,1.3414,0,0,0,0,0,0,0,0,0,0,0,0,0,1.342,1.3418,1.3428,1.3422,1.3422,1.3428,1.3428,1.3428,1.3416,1.3416,1.3415,1.3415,1.3413,1.3414,1.3414,1.3425,0,0,1.3415,1.3415,0,0,0,0,0,0,0,0,1.342,1.3421,1.3423,1.3423,1.3422,1.3422,1.3423,1.3427,1.3416,1.3418,1.3415,1.3415,1.3416,1.3416,1.3417,1.3425,1.3425,1.3415,1.3415,1.3415,1.3415,0,0,0,0,0,0,0,1.342,1.3421,1.3428,1.3423,1.3423,1.3419,1.3419,1.3424,1.342,1.3418,1.3417,1.3417,1.3416,1.3417,1.3417,1.3425,1.3415,1.3415,1.3415,1.3416,1.3443,1.3444,0,0,0,0,0,0,1.3421,1.3421,1.3428,1.3428,1.342,1.342,1.342,1.3422,1.342,1.3419,1.3418,1.3417,1.3417,1.3417,1.3417,1.3431,1.3415,1.3416,1.3416,1.3443,1.3443,1.3444,0,0,0,0,0,0,1.3421,1.3422,1.3428,1.3424,1.3425,1.3421,1.3423,1.3422,1.3423,1.342,1.3419,1.342,1.3416,1.3417,1.3424,1.3431,1.3416,1.3416,1.3442,1.3443,1.3443,1.3459,0,0,0,0,0,0,1.342,1.3422,1.3426,1.3424,1.3425,1.3435,1.3424,1.3423,1.3424,1.3423,1.3421,1.342,1.3416,1.3423,1.3424,1.3431,1.3416,1.3441,1.3442,1.3443,1.3458,1.346,1.3462,0,0,0,0,0,1.342,1.3429,1.3426,1.3427,1.343,1.3435,1.3435,1.3431,1.3425,1.3429,1.3427,1.342,1.343,1.3424,1.3425,1.3432,1.3441,1.3442,1.3443,1.3457,1.346,1.3462,0,0,0,0,0,0,1.3431,1.3429,1.3425,1.3435,1.3435,1.3433,1.3438,1.3434,1.3435,1.3434,1.3428,1.3427,1.3436,1.3434,1.3428,1.3443,1.3434,1.3436,1.3444,1.3447,1.3449,1.345,1.3417,0,0,0,0,0,1.3435,1.3439,1.3437,1.3445,1.3446,1.3442,1.3444,1.3441,1.3441,1.3441,1.3439,1.3439,1.3442,1.3444,1.3447,1.3457,1.3457,1.3463,1.3465,1.3467,1.3468,1.3475,1.3478,1.3448,1.3448,1.3448,0,0,1.3442,1.3441,1.3445,1.3448,1.3448,1.3453,1.3442,1.3448,1.3451,1.3441,1.3449,1.3447,1.3447,1.3456,1.346,1.3455,1.3477,1.3468,1.347,1.347,1.3477,1.348,1.3482,1.3448,1.3448,1.3448,0,0,1.3458,1.3458,1.3466,1.3466,1.3467,1.3465,1.3466,1.3465,1.3465,1.3472,1.3465,1.3469,1.3474,1.3474,1.3475,1.3493,1.3488,1.3494,1.3506,1.3513,1.3515,1.3517,1.3525,1.3528,1.3495,1.3495,1.3495,0,1.3467,1.3475,1.347,1.3476,1.3478,1.347,1.3478,1.3479,1.348,1.3482,1.3476,1.3484,1.3483,1.3493,1.3497,1.3498,1.35,1.3495,1.3515,1.3517,1.3519,1.3526,1.3529,1.3496,1.3496,1.3496,1.3496,0,1.3486,1.3492,1.3498,1.3501,1.3503,1.351,1.3507,1.351,1.3506,1.3504,1.3512,1.3511,1.3514,1.3516,1.3511,1.3525,1.3523,1.3516,1.3507,1.3523,1.353,1.3532,1.3497,1.3497,1.3497,1.3497,0,0,1.3509,1.351,1.3513,1.3515,1.3515,1.3519,1.3526,1.353,1.3533,1.3534,1.3541,1.3546,1.354,1.3541,1.3537,1.3543,1.3559,1.3536,1.3536,1.3542,1.3576,1.3582,1.3585,1.3555,1.3556,1.3556,1.3577,0,1.3526,1.3539,1.3535,1.3548,1.3554,1.3547,1.3553,1.3554,1.3553,1.3557,1.3555,1.356,1.3551,1.3552,1.3558,1.3556,1.3566,1.3554,1.3562,1.3562,1.3563,1.3588,1.3594,1.3614,1.3579,1.3579,1.358,0,1.3547,1.3551,1.3565,1.3566,1.3568,1.3574,1.3578,1.3582,1.3583,1.3582,1.3584,1.3579,1.3586,1.3577,1.3587,1.3579,1.3581,1.3581,1.3582,1.3583,1.3573,1.3592,1.3619,1.3623,1.3584,1.3583,1.3583,0,1.3565,1.3572,1.3582,1.3584,1.3585,1.359,1.359,1.3591,1.3594,1.3597,1.3599,1.3603,1.3605,1.3608,1.3604,1.3597,1.3615,1.3605,1.3615,1.3615,1.362,1.362,1.365,1.362,1.362,1.362,1.362,0,1.3584,1.3593,1.359,1.3596,1.3607,1.3602,1.3612,1.3612,1.3613,1.3619,1.3613,1.3618,1.3613,1.3618,1.3615,1.3625,1.3625,1.3625,1.3624,1.3626,1.3627,1.3629,1.3628,1.362,1.362,1.362,1.362,0,1.3605,1.3604,1.3614,1.3615,1.3615,1.3623,1.3624,1.363,1.3628,1.3636,1.3637,1.3635,1.3641,1.3638,1.3643,1.3641,1.3655,1.3651,1.3655,1.3654,1.3665,1.3665,1.3699,1.3704,1.3669,1.3669,1.3669,0,1.3619,1.3626,1.3628,1.3632,1.3634,1.364,1.3643,1.364,1.3643,1.3646,1.3652,1.3658,1.3662,1.3672,1.3671,1.3675,1.3673,1.3685,1.3674,1.3676,1.3675,1.3675,1.3677,1.3687,1.3687,1.3688,1.3688,0,1.3643,1.3642,1.3648,1.3654,1.3658,1.3662,1.3666,1.3669,1.3666,1.367,1.3677,1.3681,1.3687,1.3693,1.3698,1.3698,1.3693,1.3691,1.3694,1.3697,1.3699,1.37,1.3662,1.3691,1.3691,1.369,1.369,1.369,1.3662,1.3668,1.3672,1.3678,1.3681,1.3685,1.3691,1.3691,1.3696,1.3702,1.3699,1.3708,1.371,1.3715,1.3717,1.3723,1.3718,1.3722,1.3723,1.3725,1.3727,1.3698,1.3723,1.3723,1.3723,1.3723,1.3723,0,1.3687,1.3689,1.3696,1.3701,1.3707,1.3702,1.3706,1.3711,1.3719,1.3721,1.3726,1.3735,1.3741,1.3741,1.3746,1.3752,1.3749,1.3753,1.3754,1.3754,1.373,1.3728,1.3755,1.3755,1.3755,1.3755,1.3755,1.3755,1.3701,1.3713,1.3712,1.3725,1.3727,1.3736,1.3739,1.3743,1.3745,1.3755,1.3761,1.3761,1.3762,1.3768,1.3774,1.3774,1.3777,1.3782,1.3781,1.3759,1.3755,1.3753,1.375,1.3782,1.3782,1.3805,1.3805,1.3805]}]]